World > North America > United States > Georgia

Ringgold, Georgia Regional Weather

Lat: 34.92N, Lon: 85.11W
Wx Zone: GAZ003
Warning NWS WEATHER ALERT - (More Info. Click Here) Warning
Feedback

Ringgold, GA Regional Weather

Expires:202002211300;;873353
ASUS42 KFFC 211210
RWRGA 
WEATHER ROUNDUP FOR GEORGIA
NATIONAL WEATHER SERVICE PEACHTREE CITY GA
700 AM EST FRI FEB 21 2020

NOTE: "FAIR" INDICATES FEW OR NO CLOUDS BELOW 12,000 FEET WITH NO
SIGNIFICANT WEATHER AND/OR OBSTRUCTIONS TO VISIBILITY. 

* = USE WITH CAUTION. THE STATIONS MARKED WITH AN ASTERISK MAY NOT
REPORT WEATHER SUCH AS PRECIPITATION, FOG, OR THUNDER AND ARE NOT 
QUALITY CONTROLLED BY NWS.

THE REMARK "TC" DENOTES TEMPERATURE READING IN DEGREES CELSIUS.


GAZ001>058-211300-
NORTH GEORGIA
  
CITY           SKY/WX    TMP DP  RH WIND       PRES   REMARKS
ATLANTA        CLOUDY    35  29  78 N12       30.38R WCI  27          
6HR MIN TEMP:  35; 6HR MAX TEMP:  39; 6HR PCP:  0.01;                

ATHENS         CLOUDY    38  32  79 E9        30.38R WCI  31          
6HR MIN TEMP:  38; 6HR MAX TEMP:  39;                                

CHAMBLEE       CLOUDY    33  28  81 NW8       30.39R WCI  26          
6HR MIN TEMP:  33; 6HR MAX TEMP:  38; 6HR PCP: TRACE;                

PEACHTREE CITY CLOUDY    37  31  78 N8        30.40R WCI  31          
6HR MIN TEMP:  37; 6HR MAX TEMP:  41; 6HR PCP: TRACE;                

ROME           FAIR      31  21  66 N14G20    30.46R WCI  21          
6HR MIN TEMP:  31; 6HR MAX TEMP:  36;                                

WEST ATLANTA   CLOUDY    34  28  79 NW5       30.40R WCI  30          
6HR MIN TEMP:  34; 6HR MAX TEMP:  37; 6HR PCP: TRACE;                

GAINESVILLE    FAIR      33  28  81 N3        30.38R                  
6HR MIN TEMP:  33; 6HR MAX TEMP:  37; 6HR PCP: TRACE;                

CARTERSVILLE   FAIR      31  24  75 VRB3      30.45R                  
6HR MIN TEMP:  31; 6HR MAX TEMP:  37;                                


  
CITY           SKY/WX    TMP DP  RH WIND       PRES   REMARKS
DALTON*        MOCLDY    32  23  69 N9        30.49R WCI  24          
LAWRENCEVILLE* CLOUDY    35  32  88 CALM      30.38R                  
MARIETTA       MOCLDY    32  28  86 NW10      30.39  WCI  24          
KENNESAW*      MOCLDY    30  27  88 VRB5      30.41R WCI  25          
CANTON*        FAIR      32  27  80 NW6       30.40R WCI  26          
BLAIRSVILLE*   FAIR      25  22  89 S6        30.38R WCI  18          
$$


SKY/WX - Weather  TMP - Temperature  DP - Dew Point  RH - Relative Humidity
WIND - Wind Direction/Speed PRES - Barometric Pressure VSB - Visibility
WCI - Wind Chill Index E13G22 Wind - East Wind 13 mph/Gusts of 22 mph
Ringgold Weather Map
What is UTC time?